Zurück zum Katalog

CZ-6A DEB

AktivSSO
NORAD 55525·DEBRIS·🇨🇳 China

Gestartet Nov 11, 2022 von Taiyuan Satellite Launch Center

Loading…

Nächste Überflüge (nächste 24 Stunden)

TLE

AktuellSource: Space-Track

Epoche: Sep 14, 2026, 10:15 UTC

1 55525U 22151XX  26257.42755111 -.00000116  00000-0 -45711-4 0  9993
2 55525  98.9180 241.8955 0094241 156.3442 204.2100 14.02547658190997

Verfolge CZ-6A DEB in Echtzeit mit AllMySat

Download on the App Store